星链-31843 (STARLINK-31843 )

导读 | 星芒AI

STARLINK-31843 是 SpaceX Starlink 项目中的一颗低轨通信卫星,属于第二代 Starlink 卫星(Gen2)。该卫星于 2024 年发射,旨在为全球用户提供高速、低延迟的互联网服务。它运行在约 550 公里的轨道高度,配备先进通信设备,支持更广的覆盖范围和更高的数据传输速率。作为 Starlink 卫星群的一部分,STARLINK-31843 有助于提升偏远地区网络接入能力,并增强整体星座的冗余与稳定性。

基本信息
目录编号:
59722
目录名称:
STARLINK-31843
国际标识:
2024-088Q
轨道中心:
EARTH
卫星名称:
星链-31843
卫星全名:
星链-31843 (STARLINK-31843 )
卫星状态:
在轨 (已飞行541 天)
发射日期:
2024-05-10 UTC
国别 :
美国 (US)
星等 :
--
轨道信息
数据来源 国际轨道数据
星历时间: 2025-11-01T21:54:47+0800
20小时前
查看轨道信息
半长轴: 6853.363km
偏心率: 0.0001068
轨道倾角: 53.161°
近地点辐角 76.637°
升交点赤经 15.273°
平近点角 283.475°
近地点: 474.496km
远地点: 475.96km
周期: 94.106分钟
每日圈数: 15.301964
详细信息
固有亮度:
5
最大亮度:
1.5
卫星平台:
Starlink v2.0 mini
覆盖范围:
全球
运营商:
太空探索技术公司
运营商所在国:
美国
制造商(研发单位):
太空探索技术公司
制造商所在国:
美国
使用方式:
暂无
卫星简介
星链(Starlink)计划是由太空探索技术公司(SpaceX)提出的一个巨型低轨卫星互联网星座项目,计划在2019年至2024年间在太空搭建由约1.2万颗卫星组成的“星链”网络,其中1584颗将部署在地球上空550千米处的近地轨道,并从2020年开始工作。该卫星仍在工作。
2D轨道图
3D轨道图
轨道高度分析图
轨道倾角分析图
轨道综合分析图
查看轨道综合分析图